[[{"header":{"parameterUnit":"m.s-1","parameterCategory":1,"la1":30.2991,"la2":30.254,"lo1":-89.0895,"lo2":-89.0444,"dy":0.0017,"dx":0.0017,"nx":28,"ny":28,"refTime":"2023-09-02T09:00:00:Z","depth":0,"parameterNumber":2,"parameterNumberName":"U-component_of_WINDS"},"data":[0,0,0,0,0,0,0,0,0,0,0,0,0,0,0,0,0,0,0,0,0,0,0,0,0,0,0,0,0,0,0,0,0,0,0,0,0,0,0,0,0,0,0,0,0,0,0,0,0,0,0,0,0,0,0,0,0,0,-1.0086,-1.0086,0,-1.0088,-1.0088,-1.0088,-1.0112,-1.0112,-1.0113,-1.0113,-1.0113,-1.0113,-1.0112,0,0,0,0,0,0,0,0,0,0,0,0,0,-1.0104,-1.0104,-1.0086,-1.0086,-1.0086,-1.0088,-1.0088,-1.0088,-1.0111,-1.0112,-1.0113,-1.0114,-1.0114,-1.0113,-1.0112,0,0,0,0,0,0,0,0,0,0,0,0,0,-1.01,-1.0104,-1.0086,-1.0098,-1.0099,-1.0088,-1.0088,-1.0088,-1.0111,-1.0112,-1.0113,-1.0114,-1.0114,-1.0113,-1.0112,-1.0088,0,0,-1.011,-1.0109,0,0,0,0,0,0,0,0,-1.01,-1.0099,-1.0096,-1.0097,-1.0098,-1.01,-1.0094,-1.0088,-1.0111,-1.0107,-1.0113,-1.0114,-1.0108,-1.0108,-1.0106,-1.0089,-1.0089,-1.0109,-1.0109,-1.0109,-1.0108,0,0,0,0,0,0,0,-1.01,-1.0099,-1.0087,-1.0096,-1.0098,-1.0104,-1.0104,-1.0093,-1.0102,-1.0107,-1.0109,-1.0109,-1.0109,-1.0107,-1.0106,-1.0089,-1.011,-1.0109,-1.0108,-1.0108,-1.0055,-1.0054,0,0,0,0,0,0,-1.0099,-1.0099,-1.0086,-1.0087,-1.0102,-1.0103,-1.0103,-1.0099,-1.0102,-1.0104,-1.0108,-1.011,-1.0108,-1.0107,-1.0106,-1.0081,-1.0109,-1.0108,-1.0107,-1.0056,-1.0055,-1.0054,0,0,0,0,0,0,-1.0099,-1.0098,-1.0086,-1.0094,-1.0093,-1.0101,-1.0096,-1.0098,-1.0096,-1.0103,-1.0105,-1.0104,-1.0109,-1.0108,-1.0094,-1.0081,-1.0107,-1.0107,-1.0057,-1.0055,-1.0054,-1.0029,0,0,0,0,0,0,-1.01,-1.0098,-1.0088,-1.0093,-1.0092,-1.0073,-1.0095,-1.0098,-1.0095,-1.0097,-1.01,-1.0101,-1.0109,-1.0095,-1.0093,-1.0081,-1.0106,-1.0058,-1.0056,-1.0055,-1.0031,-1.0027,-1.0023,0,0,0,0,0,-1.01,-1.008,-1.0088,-1.0086,-1.0081,-1.0072,-1.0072,-1.0082,-1.0094,-1.0085,-1.009,-1.0101,-1.0083,-1.0093,-1.0091,-1.0078,-1.0059,-1.0057,-1.0055,-1.0032,-1.0027,-1.0023,0,0,0,0,0,0,-1.0072,-1.0081,-1.0089,-1.007,-1.0071,-1.0077,-1.0065,-1.0076,-1.0072,-1.0075,-1.0087,-1.0088,-1.0072,-1.0074,-1.0085,-1.0057,-1.0073,-1.007,-1.0057,-1.0052,-1.0048,-1.0048,-1.0105,0,0,0,0,0,-1.0064,-1.0057,-1.0065,-1.0047,-1.0047,-1.0056,-1.0053,-1.0061,-1.0062,-1.0062,-1.0065,-1.0065,-1.006,-1.0056,-1.0051,-1.0031,-1.0033,-1.0022,-1.0018,-1.0015,-1.0013,-1.0004,-1.0,-1.0047,-1.0047,-1.0047,0,0,-1.0046,-1.005,-1.0045,-1.0041,-1.0043,-1.0036,-1.0056,-1.0047,-1.0042,-1.006,-1.0048,-1.0051,-1.0052,-1.0035,-1.0028,-1.0036,-1.0,-1.0012,-1.001,-1.0009,-1.0002,-0.9998,-0.9994,-1.0046,-1.0046,-1.0046,0,0,-1.0011,-1.0013,-0.9999,-1.0001,-1.0003,-1.001,-1.0007,-1.0012,-1.0015,-1.0003,-1.0018,-1.0012,-1.0002,-1.0003,-1.0002,-0.997,-0.9981,-0.9968,-0.9949,-0.9941,-0.9937,-0.9934,-0.9924,-0.9921,-0.9966,-0.9966,-0.9966,0,-0.9989,-0.9979,-0.9991,-0.9982,-0.9981,-0.9999,-0.9986,-0.9987,-0.9987,-0.9986,-0.9995,-0.9985,-0.9986,-0.9972,-0.9964,-0.9962,-0.996,-0.9968,-0.9937,-0.9934,-0.9931,-0.9922,-0.9918,-0.9965,-0.9965,-0.9965,-0.9965,0,-0.9952,-0.9945,-0.9934,-0.9936,-0.9933,-0.9922,-0.9934,-0.993,-0.9939,-0.9945,-0.9934,-0.9937,-0.9934,-0.9932,-0.9939,-0.9919,-0.9924,-0.9935,-0.9951,-0.9925,-0.9917,-0.9913,-0.9962,-0.9963,-0.9963,-0.9964,0,0,-0.9898,-0.9909,-0.9904,-0.9907,-0.9912,-0.9907,-0.9897,-0.9896,-0.9893,-0.9893,-0.9887,-0.9879,-0.989,-0.9889,-0.9897,-0.989,-0.9868,-0.9902,-0.9903,-0.9897,-0.9847,-0.984,-0.9835,-0.9875,-0.9875,-0.9874,-0.9848,0,-0.9865,-0.985,-0.9862,-0.9845,-0.984,-0.9858,-0.985,-0.9853,-0.9859,-0.9856,-0.9862,-0.9857,-0.9871,-0.9871,-0.9865,-0.9872,-0.9858,-0.9874,-0.987,-0.9869,-0.987,-0.9831,-0.9822,-0.9797,-0.9845,-0.9844,-0.9844,0,-0.9824,-0.9825,-0.9808,-0.9817,-0.9815,-0.9808,-0.9809,-0.9805,-0.9809,-0.9814,-0.9815,-0.9826,-0.9818,-0.9834,-0.9825,-0.9835,-0.9835,-0.9838,-0.9837,-0.9838,-0.9855,-0.9831,-0.9789,-0.9786,-0.9838,-0.9839,-0.9839,0,-0.9789,-0.9785,-0.9775,-0.9776,-0.9785,-0.978,-0.9784,-0.9789,-0.9788,-0.9789,-0.9789,-0.9789,-0.9789,-0.9789,-0.98,-0.981,-0.979,-0.9806,-0.9795,-0.9794,-0.9789,-0.979,-0.9748,-0.9787,-0.9787,-0.9788,-0.9788,0,-0.9751,-0.974,-0.9759,-0.9753,-0.9742,-0.9756,-0.9745,-0.9751,-0.9756,-0.9752,-0.9767,-0.9763,-0.9778,-0.9775,-0.9784,-0.9776,-0.9775,-0.978,-0.9782,-0.9779,-0.9778,-0.9779,-0.9781,-0.9787,-0.9787,-0.9787,-0.9787,0,-0.9709,-0.9721,-0.9712,-0.9722,-0.9725,-0.9717,-0.9726,-0.9721,-0.9729,-0.9724,-0.9724,-0.9736,-0.9735,-0.9746,-0.9746,-0.9752,-0.974,-0.9745,-0.9739,-0.9741,-0.9729,-0.973,-0.9686,-0.9682,-0.9724,-0.9723,-0.9723,0,-0.9685,-0.9677,-0.9688,-0.9687,-0.9691,-0.9688,-0.9688,-0.9703,-0.9702,-0.9708,-0.9703,-0.9703,-0.9703,-0.97,-0.9709,-0.971,-0.9716,-0.97,-0.9716,-0.9713,-0.9717,-0.9718,-0.9718,-0.9697,-0.9696,-0.9696,-0.9696,0,-0.9641,-0.9648,-0.9648,-0.965,-0.965,-0.9653,-0.9656,-0.9654,-0.967,-0.9669,-0.9668,-0.9669,-0.967,-0.967,-0.9673,-0.9678,-0.969,-0.9691,-0.9689,-0.9685,-0.9682,-0.9685,-0.9731,-0.9692,-0.9692,-0.9692,-0.9693,-0.9693,-0.9608,-0.9603,-0.9611,-0.9611,-0.9615,-0.9619,-0.9616,-0.9624,-0.9624,-0.9627,-0.9636,-0.9634,-0.964,-0.9646,-0.9649,-0.9649,-0.9656,-0.9652,-0.9651,-0.965,-0.9649,-0.9682,-0.9649,-0.9649,-0.9649,-0.9649,-0.9649,0,-0.9567,-0.9573,-0.9573,-0.9578,-0.9579,-0.9591,-0.9596,-0.9596,-0.9594,-0.96,-0.9601,-0.9601,-0.9602,-0.9612,-0.9614,-0.9612,-0.9618,-0.9612,-0.9613,-0.9614,-0.9641,-0.9644,-0.9607,-0.9607,-0.9607,-0.9607,-0.9607,-0.9607,-0.9545,-0.9538,-0.9546,-0.9543,-0.9549,-0.9548,-0.955,-0.9554,-0.9559,-0.9559,-0.956,-0.9567,-0.9575,-0.9579,-0.9581,-0.9584,-0.9584,-0.9577,-0.9582,-0.9607,-0.9611,-0.9615,-0.9618,-0.9577,-0.9577,-0.9555,-0.9554,-0.9554]},{"header":{"parameterUnit":"m.s-1","parameterCategory":1,"la1":30.2991,"la2":30.254,"lo1":-89.0895,"lo2":-89.0444,"dy":0.0017,"dx":0.0017,"nx":28,"ny":28,"refTime":"2023-09-02T09:00:00:Z","depth":0,"parameterNumber":3,"parameterNumberName":"V-component_of_WINDS"},"data":[0,0,0,0,0,0,0,0,0,0,0,0,0,0,0,0,0,0,0,0,0,0,0,0,0,0,0,0,0,0,0,0,0,0,0,0,0,0,0,0,0,0,0,0,0,0,0,0,0,0,0,0,0,0,0,0,0,0,2.6383,2.6382,0,2.6244,2.6243,2.6241,2.6178,2.6178,2.6179,2.6179,2.6028,2.6024,2.602,0,0,0,0,0,0,0,0,0,0,0,0,0,2.6587,2.6584,2.6384,2.6382,2.638,2.6245,2.6243,2.6241,2.6178,2.6178,2.6179,2.6179,2.6029,2.6024,2.6019,0,0,0,0,0,0,0,0,0,0,0,0,0,2.6478,2.6583,2.6384,2.6333,2.6327,2.6245,2.6243,2.624,2.6178,2.6178,2.6179,2.6179,2.6031,2.6025,2.6019,2.5975,0,0,2.5999,2.5997,0,0,0,0,0,0,0,0,2.6485,2.6471,2.6342,2.6336,2.6329,2.6229,2.6259,2.6151,2.6178,2.6234,2.6179,2.6179,2.6094,2.6083,2.6056,2.5967,2.5961,2.5999,2.5995,2.5992,2.5991,0,0,0,0,0,0,0,2.6492,2.6477,2.6328,2.634,2.6332,2.6314,2.6299,2.6238,2.6164,2.623,2.6225,2.6209,2.6091,2.6062,2.6052,2.5959,2.5999,2.5993,2.599,2.5987,2.5826,2.5826,0,0,0,0,0,0,2.6509,2.6483,2.6333,2.6324,2.641,2.631,2.6293,2.6261,2.6165,2.615,2.6209,2.6207,2.6072,2.6059,2.6046,2.5987,2.5992,2.5987,2.5983,2.5827,2.5826,2.5825,0,0,0,0,0,0,2.6514,2.6497,2.6338,2.6402,2.6381,2.6307,2.6271,2.6258,2.6229,2.615,2.6135,2.6194,2.6072,2.6055,2.5993,2.5981,2.5984,2.5978,2.5827,2.5826,2.5826,2.5871,0,0,0,0,0,0,2.652,2.6499,2.6483,2.6403,2.6378,2.629,2.627,2.6255,2.622,2.6215,2.6132,2.6118,2.6071,2.6003,2.5987,2.5973,2.5973,2.5828,2.5827,2.5826,2.587,2.5872,2.5873,0,0,0,0,0,2.6528,2.65,2.6483,2.6465,2.6357,2.629,2.6275,2.6224,2.6219,2.6201,2.615,2.612,2.5986,2.5997,2.5979,2.5962,2.5828,2.5827,2.5826,2.5869,2.5871,2.5873,0,0,0,0,0,0,2.6578,2.6488,2.6468,2.6414,2.636,2.6279,2.6256,2.6228,2.6173,2.6171,2.6107,2.6089,2.6032,2.5991,2.6005,2.5914,2.5904,2.5899,2.5943,2.5945,2.5946,2.5957,2.5968,0,0,0,0,0,2.6583,2.6538,2.6461,2.6421,2.6395,2.633,2.6299,2.6265,2.6205,2.6181,2.6126,2.6067,2.6011,2.5976,2.592,2.5864,2.5844,2.5843,2.5845,2.5847,2.5843,2.5809,2.5808,2.5822,2.5822,2.5822,0,0,2.6592,2.6538,2.6513,2.6429,2.6384,2.6337,2.6311,2.6262,2.6226,2.6173,2.6112,2.6069,2.5999,2.594,2.5911,2.5904,2.5835,2.5845,2.5847,2.5842,2.5808,2.5806,2.5805,2.5821,2.5821,2.5821,0,0,2.6585,2.654,2.6501,2.6457,2.6389,2.6346,2.6337,2.626,2.623,2.6169,2.6128,2.6082,2.5988,2.594,2.5903,2.5878,2.5848,2.5861,2.5869,2.5837,2.5836,2.5834,2.5825,2.5822,2.5858,2.5858,2.5858,0,2.6604,2.6534,2.6484,2.6438,2.6401,2.6354,2.6313,2.6271,2.6187,2.6162,2.6156,2.6037,2.5986,2.5915,2.5909,2.5881,2.5867,2.587,2.5841,2.5839,2.5837,2.5826,2.5823,2.586,2.586,2.586,2.586,0,2.6561,2.6513,2.6489,2.6413,2.6373,2.633,2.627,2.6236,2.6205,2.6163,2.6099,2.6038,2.5969,2.5949,2.5917,2.5873,2.587,2.5853,2.5842,2.5838,2.5827,2.5823,2.5863,2.5862,2.5862,2.5861,0,0,2.6581,2.6478,2.647,2.6434,2.6356,2.6317,2.627,2.6205,2.6177,2.6121,2.6078,2.6,2.5984,2.5942,2.5905,2.5877,2.586,2.5862,2.586,2.5863,2.5806,2.5818,2.5815,2.584,2.5839,2.5838,2.5811,0,2.6562,2.648,2.6433,2.6368,2.6322,2.6277,2.6236,2.6182,2.6141,2.6094,2.6046,2.5992,2.5975,2.595,2.592,2.5868,2.5847,2.587,2.5798,2.5796,2.5816,2.5809,2.5823,2.58,2.5807,2.5806,2.5805,0,2.653,2.6477,2.6409,2.6336,2.6315,2.628,2.6216,2.6172,2.611,2.6081,2.6036,2.5998,2.5945,2.5939,2.5863,2.588,2.5847,2.5817,2.5815,2.5805,2.58,2.5798,2.5791,2.5788,2.5798,2.5799,2.5799,0,2.655,2.6462,2.641,2.6381,2.6295,2.6271,2.6233,2.6171,2.6135,2.6078,2.6054,2.5991,2.5957,2.5908,2.5854,2.5855,2.5783,2.5772,2.5756,2.5757,2.5742,2.5743,2.5729,2.5723,2.5723,2.5723,2.5723,0,2.6534,2.6494,2.6418,2.6386,2.6339,2.6284,2.6238,2.6197,2.6142,2.6099,2.6055,2.6015,2.5947,2.5898,2.5855,2.5798,2.5783,2.5756,2.5745,2.576,2.5763,2.5737,2.5737,2.5722,2.5723,2.5723,2.5723,0,2.6548,2.6496,2.6436,2.636,2.634,2.6309,2.6242,2.6208,2.6165,2.6111,2.6095,2.6026,2.5966,2.5908,2.5827,2.5798,2.5741,2.5726,2.5763,2.5756,2.5743,2.5745,2.571,2.5702,2.5704,2.5704,2.5704,0,2.6541,2.651,2.6431,2.64,2.6365,2.6315,2.6279,2.6224,2.6187,2.6113,2.6087,2.6025,2.5972,2.5877,2.5818,2.5756,2.5739,2.5731,2.5729,2.5745,2.5737,2.574,2.5735,2.5732,2.5732,2.5733,2.5733,0,2.6533,2.651,2.646,2.6402,2.636,2.631,2.6259,2.6236,2.617,2.613,2.607,2.6029,2.5947,2.5885,2.5816,2.5774,2.5741,2.5735,2.5727,2.5741,2.5763,2.575,2.5766,2.5735,2.5735,2.5735,2.5735,2.5734,2.6536,2.6506,2.6446,2.6392,2.6348,2.6301,2.6265,2.6218,2.6168,2.6099,2.6068,2.6007,2.5944,2.5848,2.5807,2.5756,2.5748,2.5738,2.5735,2.5733,2.5736,2.5773,2.5743,2.5743,2.5743,2.5743,2.5743,0,2.6525,2.6485,2.6436,2.6367,2.6324,2.63,2.6242,2.6207,2.6155,2.61,2.6049,2.5979,2.5918,2.5855,2.579,2.5762,2.5745,2.5746,2.5747,2.5738,2.5747,2.576,2.5761,2.5761,2.5761,2.5761,2.5761,2.5761,2.6515,2.6462,2.6431,2.6355,2.6314,2.6255,2.6224,2.618,2.6136,2.606,2.6011,2.5971,2.5912,2.5843,2.5785,2.5768,2.5745,2.5751,2.5729,2.5738,2.5737,2.5736,2.5748,2.5747,2.5747,2.5724,2.5724,2.5724]}]]